STARLINK-32364, 61622

Orbit data source: Space-Track

STARLINK-32364, 61622 is a payload satellite owned by SpaceX/Seattle (US) in LEO that was launched on Wed, 23 Oct 2024 UTC via an FALCON 9 launch vehicle from the Air Force Eastern Test Range (AFETR). Payload-class satellites include a variety of spacecraft equipped with specific instruments for various scientific and technological missions. These include communications satellites like Starlink; space stations such as the ISS; scientific satellites like the Hubble; Earth observation satellites from companies like Planet Labs, Umbra, and HawkEye 360; GPS; miniature CubeSats for education and research; and military/defense satellites.

Loading next visibility...
Identifier
61622, 2024-191B
Orbit
LEO
Last TLE update
3 hours ago
Origin
Manufacturer
SpaceX/Seattle
Mission
Operational Commercial Communications
Bus & Motor
STARLINK V2M, Unknown motor
Mass
730 kg wet, ~700 kg dry
Launch date (UTC)
2024-10-23 (9 months ago)
Launch vehicle
FALCON 9
Launch site
Air Force Eastern Test Range (AFETR)
Object type
Payload
Rocket body
Debris
Shape & HBR
Box + 2 Pan, 14.5 m
Radar Cross Section
36.964 m², Large (>1 m²)

Expand to show TLE details & history

TLE from 3 hours ago
0 STARLINK-32364
1 61622U 24191B   25199.84024245  .00003942  00000-0  15278-3 0  9993
2 61622  43.0011  35.0330 0000499 255.4592 104.6205 15.27555333 42470
Epoch: 2025-07-18T20:09Z
TLE epoch observation values (Epoch: 2025-07-18T20:09:56.947Z)
Latitude
0.00002°
Longitude
155.65981°
Altitude
482.985 km
Speed
7.626 km/s
True Right ascension
02h 20m 07s
True Declination
0° 00' 00"
Sunlit
Object was in daylight at epoch
Visualization orbit readout
Latitude
39.02466°
Longitude
-145.34287°
Altitude
485.719 km
Speed
7.628 km/s
Apparent Right ascension
03h 29m 18s
Apparent Declination
1° 47' 08"
Sunlit
Object is in daylight
Visualization observer readout
Local Sidereal Time
12:23:23
Azimuth
302.717° NW
Elevation
-30.526°
Doppler factor
1
Orbital elements
Apogee altitude
485.41 km
Perigee altitude
484.725 km
Semi-major axis
6,863.205 km
Eccentricity
0.00005
Inclination
43.0011°
RAAN
35.033°
Arg. of periapsis
255.4592°
True anomaly
104.62603°
Mean anomaly
104.6205°
Eccentric anomaly
104.62327°
Mean motion
3.81727 °/min
Orbital period
94.31 mins
BSTAR
0.00015278
Loading maneuver chart data...
Loading SW <> Apogee altitude chart data...
Loading historical data...
Loading historical data...
Loading historical data...
Loading historical data...
Loading historical data...
Loading historical data...
Loading historical data...
|